Time,TemperatureF,DewpointF,PressureIn,WindDirection,WindDirectionDegrees,WindSpeedMPH,WindSpeedGustMPH,Humidity,HourlyPrecipIn,Conditions,Clouds,dailyrainin,SoftwareType,DateUTC
2013-03-10 00:01:00,27.8,24.4,30.43,SSE,152,0.0,0.0,87,0.00,,,0.00,WUHU216DAVISWMX,2013-03-10 05:01:00,
2013-03-10 00:06:00,27.8,24.7,30.43,SSE,152,0.0,0.0,88,0.00,,,0.00,WUHU216DAVISWMX,2013-03-10 05:06:00,
2013-03-10 00:11:00,27.6,24.2,30.43,SSE,152,0.0,0.0,87,0.00,,,0.00,WUHU216DAVISWMX,2013-03-10 05:11:00,
2013-03-10 00:16:00,27.6,24.2,30.43,SSE,152,0.0,0.0,87,0.00,,,0.00,WUHU216DAVISWMX,2013-03-10 05:16:00,
2013-03-10 00:21:00,27.4,24.0,30.43,SSE,152,0.0,0.0,87,0.00,,,0.00,WUHU216DAVISWMX,2013-03-10 05:21:00,
2013-03-10 00:26:00,27.3,23.9,30.43,SSE,152,0.0,0.0,87,0.00,,,0.00,WUHU216DAVISWMX,2013-03-10 05:26:00,
2013-03-10 00:31:00,27.1,23.7,30.43,SSE,152,0.0,0.0,87,0.00,,,0.00,WUHU216DAVISWMX,2013-03-10 05:31:00,
2013-03-10 00:36:00,27.1,23.7,30.43,SSE,152,0.0,0.0,87,0.00,,,0.00,WUHU216DAVISWMX,2013-03-10 05:36:00,
2013-03-10 00:41:00,26.8,23.4,30.43,SSE,152,0.0,0.0,87,0.00,,,0.00,WUHU216DAVISWMX,2013-03-10 05:41:00,
2013-03-10 00:46:00,26.7,23.3,30.44,SSE,152,0.0,0.0,87,0.00,,,0.00,WUHU216DAVISWMX,2013-03-10 05:46:00,
2013-03-10 00:51:00,26.5,23.1,30.44,SSE,152,0.0,0.0,87,0.00,,,0.00,WUHU216DAVISWMX,2013-03-10 05:51:00,
2013-03-10 00:56:00,26.6,23.5,30.44,SSE,152,0.0,0.0,88,0.00,,,0.00,WUHU216DAVISWMX,2013-03-10 05:56:00,
2013-03-10 01:01:00,26.6,23.5,30.44,SSE,152,0.0,0.0,88,0.00,,,0.00,WUHU216DAVISWMX,2013-03-10 06:01:00,
2013-03-10 01:06:00,26.4,23.3,30.44,SSE,152,0.0,0.0,88,0.00,,,0.00,WUHU216DAVISWMX,2013-03-10 06:06:00,
2013-03-10 01:11:00,26.3,23.2,30.44,SSE,152,0.0,0.0,88,0.00,,,0.00,WUHU216DAVISWMX,2013-03-10 06:11:00,
2013-03-10 01:16:00,26.2,22.8,30.44,SSE,152,0.0,0.0,87,0.00,,,0.00,WUHU216DAVISWMX,2013-03-10 06:16:00,
2013-03-10 01:21:00,26.1,22.7,30.44,SSE,152,0.0,0.0,87,0.00,,,0.00,WUHU216DAVISWMX,2013-03-10 06:21:00,
2013-03-10 01:26:00,26.0,22.6,30.44,SSE,152,0.0,0.0,87,0.00,,,0.00,WUHU216DAVISWMX,2013-03-10 06:26:00,
2013-03-10 01:31:00,25.9,22.8,30.44,SSE,152,0.0,0.0,88,0.00,,,0.00,WUHU216DAVISWMX,2013-03-10 06:31:00,
2013-03-10 01:36:00,25.8,22.4,30.44,SSE,152,0.0,0.0,87,0.00,,,0.00,WUHU216DAVISWMX,2013-03-10 06:36:00,
2013-03-10 01:41:00,25.7,22.3,30.44,SSE,152,0.0,0.0,87,0.00,,,0.00,WUHU216DAVISWMX,2013-03-10 06:41:00,
2013-03-10 01:46:00,25.6,22.2,30.44,SSE,152,0.0,0.0,87,0.00,,,0.00,WUHU216DAVISWMX,2013-03-10 06:46:00,
2013-03-10 01:51:00,25.5,22.4,30.44,SSE,152,0.0,0.0,88,0.00,,,0.00,WUHU216DAVISWMX,2013-03-10 06:51:00,
2013-03-10 01:56:00,25.3,21.9,30.44,SSE,152,0.0,0.0,87,0.00,,,0.00,WUHU216DAVISWMX,2013-03-10 06:56:00,
2013-03-10 03:01:00,25.3,22.2,30.44,SSE,152,0.0,0.0,88,0.00,,,0.00,WUHU216DAVISWMX,2013-03-10 07:01:00,
2013-03-10 03:06:00,25.2,22.1,30.44,SSE,152,0.0,0.0,88,0.00,,,0.00,WUHU216DAVISWMX,2013-03-10 07:06:00,
2013-03-10 03:11:00,25.2,22.1,30.44,SSE,152,0.0,0.0,88,0.00,,,0.00,WUHU216DAVISWMX,2013-03-10 07:11:00,
2013-03-10 03:16:00,25.0,21.6,30.44,SSE,152,0.0,0.0,87,0.00,,,0.00,WUHU216DAVISWMX,2013-03-10 07:16:00,
2013-03-10 03:21:00,25.0,21.6,30.44,SSE,152,0.0,0.0,87,0.00,,,0.00,WUHU216DAVISWMX,2013-03-10 07:21:00,
2013-03-10 03:26:00,24.7,21.6,30.44,SSE,152,0.0,0.0,88,0.00,,,0.00,WUHU216DAVISWMX,2013-03-10 07:26:00,
2013-03-10 03:31:00,24.6,21.5,30.44,SSE,152,0.0,0.0,88,0.00,,,0.00,WUHU216DAVISWMX,2013-03-10 07:31:00,
2013-03-10 03:36:00,24.6,21.5,30.44,SSE,152,0.0,0.0,88,0.00,,,0.00,WUHU216DAVISWMX,2013-03-10 07:36:00,
2013-03-10 03:41:00,24.4,21.3,30.44,SSE,152,0.0,0.0,88,0.00,,,0.00,WUHU216DAVISWMX,2013-03-10 07:41:00,
2013-03-10 03:46:00,24.5,21.4,30.44,SSE,152,0.0,0.0,88,0.00,,,0.00,WUHU216DAVISWMX,2013-03-10 07:46:00,
2013-03-10 03:51:00,24.3,21.2,30.44,SSE,152,0.0,0.0,88,0.00,,,0.00,WUHU216DAVISWMX,2013-03-10 07:51:00,
2013-03-10 03:56:00,24.2,21.1,30.43,SSE,152,0.0,0.0,88,0.00,,,0.00,WUHU216DAVISWMX,2013-03-10 07:56:00,
2013-03-10 04:01:00,24.2,21.1,30.43,SSE,152,0.0,0.0,88,0.00,,,0.00,WUHU216DAVISWMX,2013-03-10 08:01:00,
2013-03-10 04:06:00,24.0,20.7,30.43,SSE,152,0.0,0.0,87,0.00,,,0.00,WUHU216DAVISWMX,2013-03-10 08:06:00,
2013-03-10 04:11:00,24.0,20.9,30.43,SSE,152,0.0,0.0,88,0.00,,,0.00,WUHU216DAVISWMX,2013-03-10 08:11:00,
2013-03-10 04:16:00,24.0,20.9,30.43,SSE,152,0.0,0.0,88,0.00,,,0.00,WUHU216DAVISWMX,2013-03-10 08:16:00,
2013-03-10 04:21:00,23.8,20.5,30.43,SSE,152,0.0,0.0,87,0.00,,,0.00,WUHU216DAVISWMX,2013-03-10 08:21:00,
2013-03-10 04:26:00,23.8,20.7,30.44,SSE,152,0.0,0.0,88,0.00,,,0.00,WUHU216DAVISWMX,2013-03-10 08:26:00,
2013-03-10 04:31:00,23.7,20.6,30.44,SSE,152,0.0,0.0,88,0.00,,,0.00,WUHU216DAVISWMX,2013-03-10 08:31:00,
2013-03-10 04:36:00,23.6,20.5,30.44,SSE,152,0.0,0.0,88,0.00,,,0.00,WUHU216DAVISWMX,2013-03-10 08:36:00,
2013-03-10 04:41:00,23.5,20.4,30.44,SSE,152,0.0,0.0,88,0.00,,,0.00,WUHU216DAVISWMX,2013-03-10 08:41:00,
2013-03-10 04:46:00,23.5,20.4,30.44,SSE,152,0.0,0.0,88,0.00,,,0.00,WUHU216DAVISWMX,2013-03-10 08:46:00,
2013-03-10 04:51:00,23.4,20.3,30.44,SSE,152,0.0,0.0,88,0.00,,,0.00,WUHU216DAVISWMX,2013-03-10 08:51:00,
2013-03-10 04:56:00,23.2,19.9,30.45,SSE,152,0.0,0.0,87,0.00,,,0.00,WUHU216DAVISWMX,2013-03-10 08:56:00,
2013-03-10 05:01:00,23.1,20.0,30.45,SSE,152,0.0,0.0,88,0.00,,,0.00,WUHU216DAVISWMX,2013-03-10 09:01:00,
2013-03-10 05:06:00,23.0,19.9,30.45,SSE,152,0.0,0.0,88,0.00,,,0.00,WUHU216DAVISWMX,2013-03-10 09:06:00,
2013-03-10 05:11:00,23.0,19.9,30.45,SSE,152,0.0,0.0,88,0.00,,,0.00,WUHU216DAVISWMX,2013-03-10 09:11:00,
2013-03-10 05:16:00,23.0,19.9,30.45,SSE,152,0.0,0.0,88,0.00,,,0.00,WUHU216DAVISWMX,2013-03-10 09:16:00,
2013-03-10 05:21:00,22.9,19.8,30.45,SSE,152,0.0,0.0,88,0.00,,,0.00,WUHU216DAVISWMX,2013-03-10 09:21:00,
2013-03-10 05:26:00,22.7,19.4,30.44,SSE,152,0.0,0.0,87,0.00,,,0.00,WUHU216DAVISWMX,2013-03-10 09:26:00,
2013-03-10 05:31:00,22.7,19.4,30.45,SSE,152,0.0,0.0,87,0.00,,,0.00,WUHU216DAVISWMX,2013-03-10 09:31:00,
2013-03-10 05:36:00,22.5,19.2,30.45,SSE,152,0.0,0.0,87,0.00,,,0.00,WUHU216DAVISWMX,2013-03-10 09:36:00,
2013-03-10 05:41:00,22.4,19.1,30.45,SSE,152,0.0,0.0,87,0.00,,,0.00,WUHU216DAVISWMX,2013-03-10 09:41:00,
2013-03-10 05:46:00,22.4,19.1,30.45,SSE,152,0.0,0.0,87,0.00,,,0.00,WUHU216DAVISWMX,2013-03-10 09:46:00,
2013-03-10 05:51:00,22.3,19.2,30.45,SSE,152,0.0,0.0,88,0.00,,,0.00,WUHU216DAVISWMX,2013-03-10 09:51:00,
2013-03-10 05:56:00,22.3,19.0,30.45,SSE,152,0.0,0.0,87,0.00,,,0.00,WUHU216DAVISWMX,2013-03-10 09:56:00,
2013-03-10 06:01:00,22.2,18.9,30.45,SSE,152,0.0,0.0,87,0.00,,,0.00,WUHU216DAVISWMX,2013-03-10 10:01:00,
2013-03-10 06:06:00,22.1,19.0,30.45,SSE,152,0.0,0.0,88,0.00,,,0.00,WUHU216DAVISWMX,2013-03-10 10:06:00,
2013-03-10 06:11:00,22.0,18.9,30.45,SSE,152,0.0,0.0,88,0.00,,,0.00,WUHU216DAVISWMX,2013-03-10 10:11:00,
2013-03-10 06:16:00,22.0,18.9,30.45,SSE,152,0.0,0.0,88,0.00,,,0.00,WUHU216DAVISWMX,2013-03-10 10:16:00,
2013-03-10 06:21:00,21.8,18.8,30.45,SSE,152,0.0,0.0,88,0.00,,,0.00,WUHU216DAVISWMX,2013-03-10 10:21:00,
2013-03-10 06:26:00,21.8,18.8,30.45,SSE,152,0.0,0.0,88,0.00,,,0.00,WUHU216DAVISWMX,2013-03-10 10:26:00,
2013-03-10 06:31:00,21.8,18.5,30.46,SSE,152,0.0,0.0,87,0.00,,,0.00,WUHU216DAVISWMX,2013-03-10 10:31:00,
2013-03-10 06:36:00,21.7,18.7,30.45,SSE,152,0.0,0.0,88,0.00,,,0.00,WUHU216DAVISWMX,2013-03-10 10:36:00,
2013-03-10 06:41:00,21.5,18.2,30.45,SSE,152,0.0,0.0,87,0.00,,,0.00,WUHU216DAVISWMX,2013-03-10 10:41:00,
2013-03-10 06:46:00,21.5,18.2,30.45,SSE,152,0.0,0.0,87,0.00,,,0.00,WUHU216DAVISWMX,2013-03-10 10:46:00,
2013-03-10 06:51:00,21.4,18.1,30.45,SSE,152,0.0,0.0,87,0.00,,,0.00,WUHU216DAVISWMX,2013-03-10 10:51:00,
2013-03-10 06:56:00,21.4,18.1,30.45,SSE,152,0.0,0.0,87,0.00,,,0.00,WUHU216DAVISWMX,2013-03-10 10:56:00,
2013-03-10 07:01:00,21.4,18.4,30.45,SSE,152,0.0,0.0,88,0.00,,,0.00,WUHU216DAVISWMX,2013-03-10 11:01:00,
2013-03-10 07:06:00,21.2,17.9,30.45,SSE,152,0.0,0.0,87,0.00,,,0.00,WUHU216DAVISWMX,2013-03-10 11:06:00,
2013-03-10 07:11:00,21.2,18.2,30.45,SSE,152,0.0,0.0,88,0.00,,,0.00,WUHU216DAVISWMX,2013-03-10 11:11:00,
2013-03-10 07:16:00,21.1,17.8,30.46,SSE,152,0.0,0.0,87,0.00,,,0.00,WUHU216DAVISWMX,2013-03-10 11:16:00,
2013-03-10 07:21:00,21.1,18.1,30.46,SSE,152,0.0,0.0,88,0.00,,,0.00,WUHU216DAVISWMX,2013-03-10 11:21:00,
2013-03-10 07:26:00,21.1,18.1,30.47,SSE,152,0.0,0.0,88,0.00,,,0.00,WUHU216DAVISWMX,2013-03-10 11:26:00,
2013-03-10 07:31:00,21.1,17.8,30.47,SSE,152,0.0,0.0,87,0.00,,,0.00,WUHU216DAVISWMX,2013-03-10 11:31:00,
2013-03-10 07:36:00,21.1,18.1,30.47,SSE,152,0.0,0.0,88,0.00,,,0.00,WUHU216DAVISWMX,2013-03-10 11:36:00,
2013-03-10 07:41:00,21.3,18.3,30.47,SSE,152,0.0,0.0,88,0.00,,,0.00,WUHU216DAVISWMX,2013-03-10 11:41:00,
2013-03-10 07:46:00,21.3,18.3,30.47,SSE,152,0.0,0.0,88,0.00,,,0.00,WUHU216DAVISWMX,2013-03-10 11:46:00,
2013-03-10 07:51:00,21.4,18.4,30.47,SSE,152,0.0,0.0,88,0.00,,,0.00,WUHU216DAVISWMX,2013-03-10 11:51:00,
2013-03-10 07:56:00,21.5,18.5,30.47,SSE,152,0.0,0.0,88,0.00,,,0.00,WUHU216DAVISWMX,2013-03-10 11:56:00,
2013-03-10 08:01:00,21.7,18.7,30.47,SSE,152,0.0,0.0,88,0.00,,,0.00,WUHU216DAVISWMX,2013-03-10 12:01:00,
2013-03-10 08:06:00,21.7,18.7,30.47,SSE,152,0.0,0.0,88,0.00,,,0.00,WUHU216DAVISWMX,2013-03-10 12:06:00,
2013-03-10 08:11:00,21.9,18.8,30.47,SSE,152,0.0,0.0,88,0.00,,,0.00,WUHU216DAVISWMX,2013-03-10 12:11:00,
2013-03-10 08:16:00,22.1,19.0,30.47,SSE,152,0.0,0.0,88,0.00,,,0.00,WUHU216DAVISWMX,2013-03-10 12:16:00,
2013-03-10 08:22:00,22.3,19.5,30.47,SSE,152,0.0,0.0,89,0.00,,,0.00,WUHU216DAVISWMX,2013-03-10 12:22:00,
2013-03-10 08:27:00,22.6,19.8,30.47,SSE,152,0.0,0.0,89,0.00,,,0.00,WUHU216DAVISWMX,2013-03-10 12:27:00,
2013-03-10 08:32:00,22.7,19.9,30.47,SSE,152,0.0,0.0,89,0.00,,,0.00,WUHU216DAVISWMX,2013-03-10 12:32:00,
2013-03-10 08:37:00,23.0,20.2,30.47,SSE,152,0.0,0.0,89,0.00,,,0.00,WUHU216DAVISWMX,2013-03-10 12:37:00,
2013-03-10 08:42:00,23.4,20.9,30.47,SSE,152,0.0,0.0,90,0.00,,,0.00,WUHU216DAVISWMX,2013-03-10 12:42:00,
2013-03-10 08:47:00,24.0,21.4,30.48,SSE,152,0.0,0.0,90,0.00,,,0.00,WUHU216DAVISWMX,2013-03-10 12:47:00,
2013-03-10 08:52:00,24.4,21.8,30.48,SSE,152,0.0,0.0,90,0.00,,,0.00,WUHU216DAVISWMX,2013-03-10 12:52:00,
2013-03-10 08:57:00,25.0,22.4,30.48,SSE,152,0.0,0.0,90,0.00,,,0.00,WUHU216DAVISWMX,2013-03-10 12:57:00,
2013-03-10 09:02:00,25.5,22.9,30.48,SSE,152,0.0,0.0,90,0.00,,,0.00,WUHU216DAVISWMX,2013-03-10 13:02:00,
2013-03-10 09:07:00,25.9,23.6,30.48,SSE,152,0.0,0.0,91,0.00,,,0.00,WUHU216DAVISWMX,2013-03-10 13:07:00,
2013-03-10 09:12:00,26.5,24.2,30.48,SSE,152,0.0,0.0,91,0.00,,,0.00,WUHU216DAVISWMX,2013-03-10 13:12:00,
2013-03-10 09:17:00,27.3,25.0,30.48,SSE,152,0.0,0.0,91,0.01,,,0.01,WUHU216DAVISWMX,2013-03-10 13:17:00,
2013-03-10 09:22:00,28.1,25.8,30.48,SSE,152,0.0,0.0,91,0.01,,,0.01,WUHU216DAVISWMX,2013-03-10 13:22:00,
2013-03-10 09:27:00,29.0,26.7,30.48,SSE,152,0.0,0.0,91,0.01,,,0.01,WUHU216DAVISWMX,2013-03-10 13:27:00,
2013-03-10 09:32:00,29.8,27.4,30.48,SSE,152,0.0,0.0,91,0.01,,,0.01,WUHU216DAVISWMX,2013-03-10 13:32:00,
2013-03-10 09:37:00,30.7,28.1,30.48,SSE,152,0.0,0.0,90,0.01,,,0.01,WUHU216DAVISWMX,2013-03-10 13:37:00,
2013-03-10 09:42:00,31.6,28.7,30.48,SSE,152,0.0,0.0,89,0.01,,,0.01,WUHU216DAVISWMX,2013-03-10 13:42:00,
2013-03-10 09:47:00,32.5,29.3,30.47,SSE,152,0.0,0.0,88,0.01,,,0.01,WUHU216DAVISWMX,2013-03-10 13:47:00,
2013-03-10 09:52:00,33.6,30.1,30.47,SSE,152,0.0,0.0,87,0.01,,,0.01,WUHU216DAVISWMX,2013-03-10 13:52:00,
2013-03-10 09:57:00,34.1,30.3,30.47,SSE,152,0.0,0.0,86,0.01,,,0.01,WUHU216DAVISWMX,2013-03-10 13:57:00,
2013-03-10 10:02:00,34.8,31.0,30.46,SSE,152,0.0,1.0,86,0.01,,,0.01,WUHU216DAVISWMX,2013-03-10 14:02:00,
2013-03-10 10:07:00,35.7,31.6,30.46,SSE,158,0.0,1.0,85,0.01,,,0.01,WUHU216DAVISWMX,2013-03-10 14:07:00,
2013-03-10 10:12:00,36.4,32.0,30.47,ENE,59,0.0,1.0,84,0.01,,,0.01,WUHU216DAVISWMX,2013-03-10 14:12:00,
2013-03-10 10:17:00,37.1,32.4,30.47,East,84,1.0,2.0,83,0.00,,,0.01,WUHU216DAVISWMX,2013-03-10 14:17:00,
2013-03-10 10:22:00,37.6,32.6,30.47,ESE,111,0.0,3.0,82,0.00,,,0.01,WUHU216DAVISWMX,2013-03-10 14:22:00,
2013-03-10 10:29:00,38.5,32.9,30.47,ESE,104,0.0,3.0,80,0.00,,,0.01,WUHU216DAVISWMX,2013-03-10 14:29:00,
2013-03-10 10:34:00,38.9,33.0,30.47,SE,135,3.0,3.0,79,0.00,,,0.01,WUHU216DAVISWMX,2013-03-10 14:34:00,
2013-03-10 10:39:00,38.7,32.8,30.47,SSE,149,0.0,4.0,79,0.00,,,0.01,WUHU216DAVISWMX,2013-03-10 14:39:00,
2013-03-10 10:44:00,38.5,32.6,30.47,SE,146,0.0,4.0,79,0.00,,,0.01,WUHU216DAVISWMX,2013-03-10 14:44:00,
2013-03-10 10:49:00,38.5,32.6,30.47,SSE,147,0.0,0.0,79,0.00,,,0.01,WUHU216DAVISWMX,2013-03-10 14:49:00,
2013-03-10 10:54:00,38.5,32.3,30.46,SSE,155,0.0,2.0,78,0.00,,,0.01,WUHU216DAVISWMX,2013-03-10 14:54:00,
2013-03-10 10:59:00,38.5,32.3,30.47,SSE,153,1.0,2.0,78,0.00,,,0.01,WUHU216DAVISWMX,2013-03-10 14:59:00,
2013-03-10 11:04:00,38.5,32.6,30.47,ENE,73,1.0,1.0,79,0.00,,,0.01,WUHU216DAVISWMX,2013-03-10 15:04:00,
2013-03-10 11:09:00,38.6,32.4,30.47,ENE,70,0.0,3.0,78,0.00,,,0.01,WUHU216DAVISWMX,2013-03-10 15:09:00,
2013-03-10 11:14:00,38.7,32.1,30.47,East,81,0.0,3.0,77,0.00,,,0.01,WUHU216DAVISWMX,2013-03-10 15:14:00,
2013-03-10 11:19:00,38.9,32.0,30.46,East,80,0.0,2.0,76,0.00,,,0.01,WUHU216DAVISWMX,2013-03-10 15:19:00,
2013-03-10 11:24:00,38.9,31.7,30.46,East,84,0.0,2.0,75,0.00,,,0.01,WUHU216DAVISWMX,2013-03-10 15:24:00,
2013-03-10 11:29:00,39.1,32.2,30.46,East,83,0.0,2.0,76,0.00,,,0.01,WUHU216DAVISWMX,2013-03-10 15:29:00,
2013-03-10 11:34:00,39.2,32.0,30.45,NNE,25,1.0,3.0,75,0.00,,,0.01,WUHU216DAVISWMX,2013-03-10 15:34:00,
2013-03-10 11:39:00,39.3,32.4,30.45,NNE,25,1.0,3.0,76,0.00,,,0.01,WUHU216DAVISWMX,2013-03-10 15:39:00,
2013-03-10 11:44:00,39.4,31.9,30.45,South,174,0.0,2.0,74,0.00,,,0.01,WUHU216DAVISWMX,2013-03-10 15:44:00,
2013-03-10 11:49:00,39.6,32.1,30.44,West,263,1.0,2.0,74,0.00,,,0.01,WUHU216DAVISWMX,2013-03-10 15:49:00,
2013-03-10 11:54:00,39.9,32.7,30.44,SSE,149,0.0,4.0,75,0.00,,,0.01,WUHU216DAVISWMX,2013-03-10 15:54:00,
2013-03-10 11:59:00,40.0,32.8,30.44,SW,224,0.0,4.0,75,0.00,,,0.01,WUHU216DAVISWMX,2013-03-10 15:59:00,
2013-03-10 12:04:00,40.2,32.6,30.44,SE,138,0.0,4.0,74,0.00,,,0.01,WUHU216DAVISWMX,2013-03-10 16:04:00,
2013-03-10 12:09:00,40.5,33.3,30.43,SE,127,1.0,4.0,75,0.00,,,0.01,WUHU216DAVISWMX,2013-03-10 16:09:00,
2013-03-10 12:14:00,40.7,32.8,30.43,East,84,2.0,3.0,73,0.00,,,0.01,WUHU216DAVISWMX,2013-03-10 16:14:00,
2013-03-10 12:19:00,41.0,33.1,30.43,ENE,68,2.0,3.0,73,0.00,,,0.01,WUHU216DAVISWMX,2013-03-10 16:19:00,
2013-03-10 12:24:00,41.1,33.2,30.43,ENE,62,0.0,3.0,73,0.00,,,0.01,WUHU216DAVISWMX,2013-03-10 16:24:00,
2013-03-10 12:29:00,41.3,33.4,30.43,SSE,156,1.0,3.0,73,0.00,,,0.01,WUHU216DAVISWMX,2013-03-10 16:29:00,
2013-03-10 12:34:00,41.5,33.6,30.43,SSE,151,1.0,5.0,73,0.00,,,0.01,WUHU216DAVISWMX,2013-03-10 16:34:00,
2013-03-10 12:39:00,41.8,33.5,30.43,SSW,211,0.0,7.0,72,0.00,,,0.01,WUHU216DAVISWMX,2013-03-10 16:39:00,
2013-03-10 12:44:00,41.9,33.6,30.43,WSW,255,1.0,7.0,72,0.00,,,0.01,WUHU216DAVISWMX,2013-03-10 16:44:00,
2013-03-10 12:49:00,42.0,33.4,30.43,WSW,256,0.0,4.0,71,0.00,,,0.01,WUHU216DAVISWMX,2013-03-10 16:49:00,
2013-03-10 12:54:00,42.2,33.5,30.43,West,270,0.0,2.0,71,0.00,,,0.01,WUHU216DAVISWMX,2013-03-10 16:54:00,
2013-03-10 12:59:00,42.3,33.6,30.43,SSE,148,1.0,3.0,71,0.00,,,0.01,WUHU216DAVISWMX,2013-03-10 16:59:00,
2013-03-10 13:04:00,42.5,33.8,30.43,SE,139,3.0,3.0,71,0.00,,,0.01,WUHU216DAVISWMX,2013-03-10 17:04:00,
2013-03-10 13:09:00,42.5,33.1,30.43,SSE,152,0.0,4.0,69,0.00,,,0.01,WUHU216DAVISWMX,2013-03-10 17:09:00,
2013-03-10 13:14:00,42.6,33.6,30.43,SE,133,0.0,4.0,70,0.00,,,0.01,WUHU216DAVISWMX,2013-03-10 17:14:00,
2013-03-10 13:19:00,42.8,33.4,30.42,ENE,75,2.0,3.0,69,0.00,,,0.01,WUHU216DAVISWMX,2013-03-10 17:19:00,
2013-03-10 13:24:00,43.0,33.6,30.42,ENE,74,0.0,3.0,69,0.00,,,0.01,WUHU216DAVISWMX,2013-03-10 17:24:00,
2013-03-10 13:29:00,43.2,33.8,30.42,ESE,112,0.0,4.0,69,0.00,,,0.01,WUHU216DAVISWMX,2013-03-10 17:29:00,
2013-03-10 13:34:00,43.3,33.9,30.42,SE,130,0.0,4.0,69,0.00,,,0.01,WUHU216DAVISWMX,2013-03-10 17:34:00,
2013-03-10 13:39:00,43.6,34.2,30.42,SE,128,0.0,4.0,69,0.00,,,0.01,WUHU216DAVISWMX,2013-03-10 17:39:00,
2013-03-10 13:44:00,43.7,34.6,30.41,SE,129,1.0,1.0,70,0.00,,,0.01,WUHU216DAVISWMX,2013-03-10 17:44:00,
2013-03-10 13:49:00,43.9,34.1,30.42,South,178,0.0,2.0,68,0.00,,,0.01,WUHU216DAVISWMX,2013-03-10 17:49:00,
2013-03-10 13:54:00,43.9,34.1,30.41,SE,139,3.0,4.0,68,0.00,,,0.01,WUHU216DAVISWMX,2013-03-10 17:54:00,
2013-03-10 13:59:00,43.9,33.7,30.41,ESE,104,0.0,4.0,67,0.00,,,0.01,WUHU216DAVISWMX,2013-03-10 17:59:00,
2013-03-10 14:04:00,44.1,34.3,30.41,ESE,117,0.0,2.0,68,0.00,,,0.01,WUHU216DAVISWMX,2013-03-10 18:04:00,
2013-03-10 14:09:00,44.2,34.4,30.40,SSE,156,3.0,5.0,68,0.00,,,0.01,WUHU216DAVISWMX,2013-03-10 18:09:00,
2013-03-10 14:14:00,44.3,34.1,30.41,SSE,153,0.0,5.0,67,0.00,,,0.01,WUHU216DAVISWMX,2013-03-10 18:14:00,
2013-03-10 14:19:00,44.4,34.6,30.40,SSW,207,0.0,2.0,68,0.00,,,0.01,WUHU216DAVISWMX,2013-03-10 18:19:00,
2013-03-10 14:24:00,44.5,33.9,30.40,SE,136,0.0,2.0,66,0.00,,,0.01,WUHU216DAVISWMX,2013-03-10 18:24:00,
2013-03-10 14:29:00,44.5,33.9,30.40,SSE,150,2.0,3.0,66,0.00,,,0.01,WUHU216DAVISWMX,2013-03-10 18:29:00,
2013-03-10 14:34:00,44.5,33.9,30.40,South,180,3.0,5.0,66,0.00,,,0.01,WUHU216DAVISWMX,2013-03-10 18:34:00,
2013-03-10 14:39:00,44.6,33.7,30.39,South,189,0.0,5.0,65,0.00,,,0.01,WUHU216DAVISWMX,2013-03-10 18:39:00,
2013-03-10 14:44:00,44.8,34.2,30.39,SE,139,0.0,2.0,66,0.00,,,0.01,WUHU216DAVISWMX,2013-03-10 18:44:00,
2013-03-10 14:49:00,44.9,33.9,30.39,SSE,151,0.0,2.0,65,0.00,,,0.01,WUHU216DAVISWMX,2013-03-10 18:49:00,
2013-03-10 14:54:00,44.9,33.9,30.39,SSE,152,3.0,4.0,65,0.00,,,0.01,WUHU216DAVISWMX,2013-03-10 18:54:00,
2013-03-10 14:59:00,45.0,34.8,30.39,WSW,243,1.0,4.0,67,0.00,,,0.01,WUHU216DAVISWMX,2013-03-10 18:59:00,
2013-03-10 15:04:00,44.9,33.9,30.39,SSE,149,0.0,4.0,65,0.00,,,0.01,WUHU216DAVISWMX,2013-03-10 19:04:00,
2013-03-10 15:09:00,45.1,34.5,30.39,SE,146,1.0,4.0,66,0.00,,,0.01,WUHU216DAVISWMX,2013-03-10 19:09:00,
2013-03-10 15:14:00,45.2,34.6,30.39,SE,145,0.0,3.0,66,0.00,,,0.01,WUHU216DAVISWMX,2013-03-10 19:14:00,
2013-03-10 15:19:00,45.3,34.7,30.39,SSE,164,0.0,4.0,66,0.00,,,0.01,WUHU216DAVISWMX,2013-03-10 19:19:00,
2013-03-10 15:24:00,45.3,34.3,30.38,SW,219,1.0,5.0,65,0.00,,,0.01,WUHU216DAVISWMX,2013-03-10 19:24:00,
2013-03-10 15:29:00,45.1,34.5,30.38,SE,134,3.0,5.0,66,0.00,,,0.01,WUHU216DAVISWMX,2013-03-10 19:29:00,
2013-03-10 15:34:00,45.1,34.9,30.38,SE,142,0.0,3.0,67,0.00,,,0.01,WUHU216DAVISWMX,2013-03-10 19:34:00,
2013-03-10 15:39:00,45.0,34.8,30.38,East,90,0.0,3.0,67,0.00,,,0.01,WUHU216DAVISWMX,2013-03-10 19:39:00,
2013-03-10 15:44:00,45.1,34.9,30.38,SE,133,2.0,3.0,67,0.00,,,0.01,WUHU216DAVISWMX,2013-03-10 19:44:00,
2013-03-10 15:49:00,45.0,34.8,30.38,SE,146,1.0,4.0,67,0.00,,,0.01,WUHU216DAVISWMX,2013-03-10 19:49:00,
2013-03-10 15:54:00,44.9,34.7,30.38,WSW,238,0.0,4.0,67,0.00,,,0.01,WUHU216DAVISWMX,2013-03-10 19:54:00,
2013-03-10 15:59:00,44.8,34.6,30.38,West,268,0.0,5.0,67,0.00,,,0.01,WUHU216DAVISWMX,2013-03-10 19:59:00,
2013-03-10 16:04:00,45.0,34.8,30.38,WSW,246,1.0,5.0,67,0.00,,,0.01,WUHU216DAVISWMX,2013-03-10 20:04:00,
2013-03-10 16:09:00,44.9,34.3,30.38,SSE,161,1.0,4.0,66,0.00,,,0.01,WUHU216DAVISWMX,2013-03-10 20:09:00,
2013-03-10 16:14:00,44.9,34.7,30.38,WSW,245,0.0,4.0,67,0.00,,,0.01,WUHU216DAVISWMX,2013-03-10 20:14:00,
2013-03-10 16:19:00,44.8,34.2,30.37,SSE,159,0.0,3.0,66,0.00,,,0.01,WUHU216DAVISWMX,2013-03-10 20:19:00,
2013-03-10 16:24:00,44.8,34.2,30.38,SSE,150,0.0,3.0,66,0.00,,,0.01,WUHU216DAVISWMX,2013-03-10 20:24:00,
2013-03-10 16:29:00,44.9,34.7,30.38,SSW,204,1.0,2.0,67,0.00,,,0.01,WUHU216DAVISWMX,2013-03-10 20:29:00,
2013-03-10 16:35:00,44.8,34.6,30.37,SSW,199,2.0,2.0,67,0.00,,,0.01,WUHU216DAVISWMX,2013-03-10 20:35:00,
2013-03-10 16:40:00,44.8,34.2,30.37,SSE,150,0.0,4.0,66,0.00,,,0.01,WUHU216DAVISWMX,2013-03-10 20:40:00,
2013-03-10 16:45:00,44.8,34.2,30.37,SE,125,0.0,4.0,66,0.00,,,0.01,WUHU216DAVISWMX,2013-03-10 20:45:00,
2013-03-10 16:50:00,44.8,34.6,30.37,SSE,165,1.0,6.0,67,0.00,,,0.01,WUHU216DAVISWMX,2013-03-10 20:50:00,
2013-03-10 16:55:00,44.9,34.7,30.37,SE,144,2.0,6.0,67,0.00,,,0.01,WUHU216DAVISWMX,2013-03-10 20:55:00,
2013-03-10 17:00:00,44.8,34.2,30.37,SE,133,0.0,2.0,66,0.00,,,0.01,WUHU216DAVISWMX,2013-03-10 21:00:00,
2013-03-10 17:05:00,44.8,34.6,30.37,SE,146,0.0,2.0,67,0.00,,,0.01,WUHU216DAVISWMX,2013-03-10 21:05:00,
2013-03-10 17:10:00,44.8,34.6,30.37,SE,146,0.0,2.0,67,0.00,,,0.01,WUHU216DAVISWMX,2013-03-10 21:10:00,
2013-03-10 17:15:00,44.8,34.6,30.37,SE,146,0.0,3.0,67,0.00,,,0.01,WUHU216DAVISWMX,2013-03-10 21:15:00,
2013-03-10 17:20:00,44.6,34.0,30.37,SE,146,0.0,3.0,66,0.00,,,0.01,WUHU216DAVISWMX,2013-03-10 21:20:00,
2013-03-10 17:25:00,44.6,34.4,30.37,SE,146,0.0,1.0,67,0.00,,,0.01,WUHU216DAVISWMX,2013-03-10 21:25:00,
2013-03-10 17:30:00,44.5,34.3,30.36,SE,136,1.0,2.0,67,0.00,,,0.01,WUHU216DAVISWMX,2013-03-10 21:30:00,
2013-03-10 17:35:00,44.5,34.3,30.36,SE,140,2.0,3.0,67,0.00,,,0.01,WUHU216DAVISWMX,2013-03-10 21:35:00,
2013-03-10 17:40:00,44.4,34.2,30.36,SE,133,0.0,3.0,67,0.00,,,0.01,WUHU216DAVISWMX,2013-03-10 21:40:00,
2013-03-10 17:45:00,44.3,34.1,30.36,SE,142,0.0,3.0,67,0.00,,,0.01,WUHU216DAVISWMX,2013-03-10 21:45:00,
2013-03-10 17:50:00,44.2,34.0,30.36,SE,134,0.0,3.0,67,0.00,,,0.01,WUHU216DAVISWMX,2013-03-10 21:50:00,
2013-03-10 17:55:00,44.0,34.2,30.35,SSE,150,0.0,3.0,68,0.00,,,0.01,WUHU216DAVISWMX,2013-03-10 21:55:00,
2013-03-10 18:00:00,43.8,34.0,30.35,SE,132,0.0,2.0,68,0.00,,,0.01,WUHU216DAVISWMX,2013-03-10 22:00:00,
2013-03-10 18:05:00,43.5,33.7,30.36,SSE,147,3.0,3.0,68,0.00,,,0.01,WUHU216DAVISWMX,2013-03-10 22:05:00,
2013-03-10 18:10:00,43.3,33.9,30.35,SE,135,0.0,3.0,69,0.00,,,0.01,WUHU216DAVISWMX,2013-03-10 22:10:00,
2013-03-10 18:15:00,43.0,33.6,30.35,SSE,148,1.0,3.0,69,0.00,,,0.01,WUHU216DAVISWMX,2013-03-10 22:15:00,
2013-03-10 18:20:00,42.8,34.1,30.35,SE,131,0.0,3.0,71,0.00,,,0.01,WUHU216DAVISWMX,2013-03-10 22:20:00,
2013-03-10 18:25:00,42.6,33.6,30.36,SE,134,0.0,4.0,70,0.00,,,0.01,WUHU216DAVISWMX,2013-03-10 22:25:00,
2013-03-10 18:30:00,42.3,33.3,30.36,NE,35,0.0,4.0,70,0.00,,,0.01,WUHU216DAVISWMX,2013-03-10 22:30:00,
2013-03-10 18:35:00,42.1,33.5,30.36,SE,144,0.0,3.0,71,0.00,,,0.01,WUHU216DAVISWMX,2013-03-10 22:35:00,
2013-03-10 18:40:00,41.9,33.6,30.36,East,83,0.0,2.0,72,0.00,,,0.01,WUHU216DAVISWMX,2013-03-10 22:40:00,
2013-03-10 18:45:00,41.7,33.4,30.36,ESE,120,0.0,2.0,72,0.00,,,0.01,WUHU216DAVISWMX,2013-03-10 22:45:00,
2013-03-10 18:50:00,41.5,33.2,30.36,ESE,112,0.0,3.0,72,0.00,,,0.01,WUHU216DAVISWMX,2013-03-10 22:50:00,
2013-03-10 18:55:00,41.4,33.1,30.36,SSE,156,0.0,3.0,72,0.00,,,0.01,WUHU216DAVISWMX,2013-03-10 22:55:00,
2013-03-10 19:00:00,41.1,33.2,30.36,South,173,0.0,2.0,73,0.00,,,0.01,WUHU216DAVISWMX,2013-03-10 23:00:00,
2013-03-10 19:05:00,40.9,33.0,30.36,South,171,0.0,2.0,73,0.00,,,0.01,WUHU216DAVISWMX,2013-03-10 23:05:00,
2013-03-10 19:10:00,40.6,33.0,30.36,ENE,73,0.0,5.0,74,0.00,,,0.01,WUHU216DAVISWMX,2013-03-10 23:10:00,
2013-03-10 19:15:00,40.4,32.8,30.37,ESE,120,0.0,5.0,74,0.00,,,0.01,WUHU216DAVISWMX,2013-03-10 23:15:00,
2013-03-10 19:20:00,40.3,33.1,30.37,ESE,122,0.0,3.0,75,0.00,,,0.01,WUHU216DAVISWMX,2013-03-10 23:20:00,
2013-03-10 19:25:00,40.1,32.9,30.37,SE,133,1.0,1.0,75,0.00,,,0.01,WUHU216DAVISWMX,2013-03-10 23:25:00,
2013-03-10 19:30:00,40.0,33.1,30.37,SE,133,0.0,1.0,76,0.00,,,0.01,WUHU216DAVISWMX,2013-03-10 23:30:00,
2013-03-10 19:35:00,39.8,32.9,30.38,SE,133,0.0,1.0,76,0.00,,,0.01,WUHU216DAVISWMX,2013-03-10 23:35:00,
2013-03-10 19:40:00,39.7,32.8,30.37,SSE,160,1.0,5.0,76,0.00,,,0.01,WUHU216DAVISWMX,2013-03-10 23:40:00,
2013-03-10 19:45:00,39.5,32.6,30.37,SSE,159,0.0,5.0,76,0.00,,,0.01,WUHU216DAVISWMX,2013-03-10 23:45:00,
2013-03-10 19:50:00,39.4,32.8,30.37,SE,127,0.0,1.0,77,0.00,,,0.01,WUHU216DAVISWMX,2013-03-10 23:50:00,
2013-03-10 19:55:00,39.2,32.6,30.38,SE,127,0.0,1.0,77,0.00,,,0.01,WUHU216DAVISWMX,2013-03-10 23:55:00,
2013-03-10 20:00:00,39.0,32.8,30.39,SE,136,0.0,0.0,78,0.00,,,0.01,WUHU216DAVISWMX,2013-03-11 00:00:00,
2013-03-10 20:05:00,39.0,32.8,30.39,SE,136,0.0,0.0,78,0.00,,,0.01,WUHU216DAVISWMX,2013-03-11 00:05:00,
2013-03-10 20:10:00,38.8,32.6,30.38,SE,136,0.0,0.0,78,0.00,,,0.01,WUHU216DAVISWMX,2013-03-11 00:10:00,
2013-03-10 20:15:00,38.7,32.5,30.38,SE,136,0.0,0.0,78,0.00,,,0.01,WUHU216DAVISWMX,2013-03-11 00:15:00,
2013-03-10 20:20:00,38.7,32.8,30.39,SE,136,0.0,0.0,79,0.00,,,0.01,WUHU216DAVISWMX,2013-03-11 00:20:00,
2013-03-10 20:25:00,38.5,32.6,30.38,SE,134,0.0,2.0,79,0.00,,,0.01,WUHU216DAVISWMX,2013-03-11 00:25:00,
2013-03-10 20:30:00,38.4,32.8,30.38,ESE,116,0.0,3.0,80,0.00,,,0.01,WUHU216DAVISWMX,2013-03-11 00:30:00,
2013-03-10 20:35:00,38.3,32.7,30.37,SE,141,0.0,3.0,80,0.00,,,0.01,WUHU216DAVISWMX,2013-03-11 00:35:00,
2013-03-10 20:40:00,38.1,32.5,30.38,SE,141,0.0,1.0,80,0.00,,,0.01,WUHU216DAVISWMX,2013-03-11 00:40:00,
2013-03-10 20:45:00,37.9,32.6,30.38,SE,141,0.0,0.0,81,0.00,,,0.01,WUHU216DAVISWMX,2013-03-11 00:45:00,
2013-03-10 20:50:00,37.8,32.5,30.38,SE,141,0.0,0.0,81,0.00,,,0.01,WUHU216DAVISWMX,2013-03-11 00:50:00,
2013-03-10 20:55:00,37.7,32.7,30.37,SE,143,4.0,4.0,82,0.00,,,0.01,WUHU216DAVISWMX,2013-03-11 00:55:00,
2013-03-10 21:00:00,37.7,32.7,30.36,ESE,109,0.0,5.0,82,0.00,,,0.01,WUHU216DAVISWMX,2013-03-11 01:00:00,
2013-03-10 21:05:00,37.6,32.6,30.37,ESE,109,0.0,5.0,82,0.00,,,0.01,WUHU216DAVISWMX,2013-03-11 01:05:00,
2013-03-10 21:10:00,37.3,32.3,30.37,ESE,107,0.0,0.0,82,0.00,,,0.01,WUHU216DAVISWMX,2013-03-11 01:10:00,
2013-03-10 21:15:00,37.3,32.3,30.37,ESE,107,0.0,0.0,82,0.00,,,0.01,WUHU216DAVISWMX,2013-03-11 01:15:00,
2013-03-10 21:20:00,37.3,32.3,30.38,ESE,107,0.0,0.0,82,0.00,,,0.01,WUHU216DAVISWMX,2013-03-11 01:20:00,
2013-03-10 21:25:00,37.3,32.3,30.37,SE,137,0.0,2.0,82,0.00,,,0.01,WUHU216DAVISWMX,2013-03-11 01:25:00,
2013-03-10 21:30:00,37.1,32.4,30.37,SE,137,0.0,2.0,83,0.00,,,0.01,WUHU216DAVISWMX,2013-03-11 01:30:00,
2013-03-10 21:35:00,37.1,32.4,30.37,SE,142,1.0,1.0,83,0.00,,,0.01,WUHU216DAVISWMX,2013-03-11 01:35:00,
2013-03-10 21:40:00,37.0,32.3,30.37,SE,141,0.0,1.0,83,0.00,,,0.01,WUHU216DAVISWMX,2013-03-11 01:40:00,
2013-03-10 21:45:00,36.9,32.2,30.36,SE,141,0.0,0.0,83,0.00,,,0.01,WUHU216DAVISWMX,2013-03-11 01:45:00,
2013-03-10 21:50:00,36.9,32.2,30.36,SE,141,0.0,0.0,83,0.00,,,0.01,WUHU216DAVISWMX,2013-03-11 01:50:00,
2013-03-10 21:55:00,36.7,32.3,30.36,ESE,112,0.0,1.0,84,0.00,,,0.01,WUHU216DAVISWMX,2013-03-11 01:55:00,
2013-03-10 22:00:00,36.7,32.3,30.36,SE,136,1.0,1.0,84,0.00,,,0.01,WUHU216DAVISWMX,2013-03-11 02:00:00,
2013-03-10 22:05:00,36.6,32.5,30.36,SE,138,0.0,1.0,85,0.00,,,0.01,WUHU216DAVISWMX,2013-03-11 02:05:00,
2013-03-10 22:10:00,36.6,32.5,30.36,SE,138,0.0,1.0,85,0.00,,,0.01,WUHU216DAVISWMX,2013-03-11 02:10:00,
2013-03-10 22:15:00,36.5,32.4,30.35,SE,138,0.0,0.0,85,0.00,,,0.01,WUHU216DAVISWMX,2013-03-11 02:15:00,
2013-03-10 22:20:00,36.4,32.6,30.35,SE,138,0.0,0.0,86,0.00,,,0.01,WUHU216DAVISWMX,2013-03-11 02:20:00,
2013-03-10 22:26:00,36.3,32.5,30.36,SE,137,0.0,0.0,86,0.00,,,0.01,WUHU216DAVISWMX,2013-03-11 02:26:00,
2013-03-10 22:31:00,36.3,32.5,30.37,SE,138,0.0,0.0,86,0.00,,,0.01,WUHU216DAVISWMX,2013-03-11 02:31:00,
2013-03-10 22:36:00,36.2,32.4,30.38,SE,137,0.0,1.0,86,0.00,,,0.01,WUHU216DAVISWMX,2013-03-11 02:36:00,
2013-03-10 22:41:00,36.2,32.4,30.37,SE,138,0.0,1.0,86,0.00,,,0.01,WUHU216DAVISWMX,2013-03-11 02:41:00,
2013-03-10 22:46:00,36.2,32.4,30.37,SE,138,0.0,1.0,86,0.00,,,0.01,WUHU216DAVISWMX,2013-03-11 02:46:00,
2013-03-10 22:51:00,36.2,32.4,30.37,SE,138,0.0,1.0,86,0.00,,,0.01,WUHU216DAVISWMX,2013-03-11 02:51:00,
2013-03-10 22:56:00,36.1,32.3,30.36,SE,138,0.0,0.0,86,0.00,,,0.01,WUHU216DAVISWMX,2013-03-11 02:56:00,
2013-03-10 23:01:00,36.2,32.4,30.36,SE,138,0.0,0.0,86,0.00,,,0.01,WUHU216DAVISWMX,2013-03-11 03:01:00,
2013-03-10 23:06:00,36.1,32.3,30.36,SE,138,0.0,0.0,86,0.00,,,0.01,WUHU216DAVISWMX,2013-03-11 03:06:00,
2013-03-10 23:11:00,36.0,32.2,30.36,SE,138,0.0,0.0,86,0.00,,,0.01,WUHU216DAVISWMX,2013-03-11 03:11:00,
2013-03-10 23:16:00,35.9,32.1,30.36,SE,138,0.0,0.0,86,0.00,,,0.01,WUHU216DAVISWMX,2013-03-11 03:16:00,
2013-03-10 23:21:00,35.8,32.0,30.36,SE,138,0.0,0.0,86,0.00,,,0.01,WUHU216DAVISWMX,2013-03-11 03:21:00,
2013-03-10 23:26:00,35.7,31.9,30.35,SE,138,0.0,0.0,86,0.00,,,0.01,WUHU216DAVISWMX,2013-03-11 03:26:00,
2013-03-10 23:31:00,35.8,32.0,30.35,SE,138,0.0,0.0,86,0.00,,,0.01,WUHU216DAVISWMX,2013-03-11 03:31:00,
2013-03-10 23:36:00,35.8,32.0,30.35,SE,138,0.0,0.0,86,0.00,,,0.01,WUHU216DAVISWMX,2013-03-11 03:36:00,
2013-03-10 23:41:00,35.6,32.1,30.36,SE,138,0.0,0.0,87,0.00,,,0.01,WUHU216DAVISWMX,2013-03-11 03:41:00,
2013-03-10 23:46:00,35.4,31.9,30.36,SE,138,0.0,0.0,87,0.00,,,0.01,WUHU216DAVISWMX,2013-03-11 03:46:00,
2013-03-10 23:51:00,35.3,31.8,30.35,SE,138,0.0,0.0,87,0.00,,,0.01,WUHU216DAVISWMX,2013-03-11 03:51:00,
2013-03-10 23:56:00,35.2,31.7,30.35,SE,138,0.0,0.0,87,0.00,,,0.01,WUHU216DAVISWMX,2013-03-11 03:56:00,